Espace membre
Imprimable
Modave, 10/02/2018, BEL - Challenge Condrusien - Jogging du Château
Liste des rapports > Condrusien 11,6 km - Classement
Recherche: Page: [1]
41 Entrées
 
Les réclamations ne sont plus acceptées, les résultats sont considérés comme définitifs.
RangNrNomAgeIOCLigueEquipeRéelTempsTkmMoy.ScrLocalité
1.6877FBINJE Valérie48BEL55:4055:424:49 12.5074FIZE-FONTAINE
2.42FDEVAUX Emmanuelle47BEL58:5758:595:06 11.80113MARCHIN
3.6379FCROUQUET Cindy41BEL1:01:131:01:265:18 11.33151
4.6426FLEVAQUE Delphine43BEL1:01:541:01:585:21 11.23158
5.551FMAQUET Fabienne48BELRUN4FUN HAVELANGE1:02:421:02:455:25 11.09171MEAN
6.6896FDEGBOMONT Caroline46BELILOVERUNNINGLIEGE1:03:521:04:045:32 10.86192COMBLAIN AU PONT
7.6930FKOHL Angélique49BELFOULEES DU PLAISIR1:04:351:04:405:35 10.76204HUY
8.591FLONEUX Caroline41BELRU4FUN HAVELANGE1:05:111:05:155:38 10.67212HAVELANGE
9.195FLACROIX Astrid48BEL1:07:161:07:365:50 10.30242FAIMES
10.6953FTRIEST Nathalie42BELI LOVE RUNNING LIEGE1:08:391:08:405:56 10.14253LIEGE
11.170FDANIELS Catherine43BELJIA1:09:001:09:075:58 10.07258SERAING
12.331FMOTTET Marie41BELFCHA1:09:421:09:536:02 9.96273WASSEIGE
13.6987FDELVILLE Christelle42BEL1:10:141:10:426:06 9.85280
14.58FDEJARDIN Christelle44BELLES FRELONS1:10:271:10:476:07 9.84282JEHAY
15.266FHALLEUX Sophie42BEL1:12:101:12:226:15 9.62298ANTHISNES
16.329FWILLEMART Nathalie45BELFCHA1:13:421:13:556:23 9.42309MARNEFFE
17.6415FMONJOIE Christine49BELARCH1:13:401:13:566:23 9.42312
18.6338FREMY Magali44BEL1:13:411:14:006:23 9.41314
19.6417FCARPENIER Florence45BEL1:14:341:14:416:27 9.32319
20.221FLEGRAIN Emmanuelle49BELRU4FUN HAVELANGE1:15:091:15:236:30 9.23323HAVELANGE
21.28FBODART Véronique43BELNEUPRE AC1:15:441:16:136:35 9.13330NEUPRÉ
22.6950FSTAS Veronique47BELJIA1:16:261:16:356:37 9.09332CHÊNÉE
23.6975FHUE Cecile43BEL1:18:181:18:376:47 8.85345
24.289FMARICHAL Stéphanie45BEL1:18:401:19:056:50 8.80350GRIVEGNÉE
25.6939FPASSCHIER Claude43BELLES MOTIVES1:18:501:19:116:50 8.79353NANDRIN
26.86FGYBELS Véronique48BELSER ATHL1:19:271:19:406:53 8.74355MONTEGNÉE
27.6105FDI NOTE Virgine40BELPAT'S FOLLES1:19:141:19:456:53 8.73357
28.94FVANDELEENE Mélanie41BEL1:20:361:20:556:59 8.60367NEUPRÉ
29.232FDESTRES Linda44BEL1:20:551:21:137:01 8.57370MIÉCRET
30.6384FDUBOIS Isabelle42BEL1:20:591:21:247:02 8.55373AMPSIN
31.6895FDEBOIS Anne-Catherine43BELGAG1:21:501:22:127:06 8.47380GEMBLOUX
32.6954FVALEPIN Kathleen46BEL1:21:511:22:137:06 8.47381GEMBLOUX
33.6352FDEWITTE Christine43BEL1:21:441:22:167:06 8.46382FRAITURE
34.6872FANDRÉ Isabelle41BELTAF1:21:501:22:177:06 8.46383LES AVINS
35.345FPETIT Ludivine42BELJIA1:22:541:23:007:10 8.39391ESNEUX
36.6391FGODFROID Cecile47BEL1:22:241:23:177:11 8.36392
37.7000FBUNTINE Grainne45BEL1:23:531:24:267:17 8.24401
38.6405FJADIN Laule47BEL1:24:001:24:537:19 8.20403
39.6978FLEGAZ Dominique47BEL1:27:051:27:387:34 7.94415
40.9982FWOUTERS Maryline48BEL1:30:421:31:057:52 7.64421
41.102FLECLÈRE Cécile49BEL1:32:461:33:118:02 7.47424CLAVIER
DNF: abandon; DSQ: disqualifié; Vitesse en km/h
Page: [1]